Wind_Speed
13 13 13 13 13 13 12 12 12 11 10 10 10 11 11 11 12 13 13 14 15 15 15 16 16 16 16 16 17 18 19 19 20 21 21 21 22 22 23 23 24 24 24 25 25 26 26 26 26 26 26 26 26 25 25 25 25 25 25 25 25 26 26 26 27 27 28 28 28 29 29 29 30 30 30 31 31 32 33 34 34 34 35 35 34 34
15 16 16 16 16 16 16 15 15 15 15 14 14 14 14 14 14 14 14 15 16 16 16 17 17 17 17 17 17 18 19 20 20 21 22 22 23 24 24 24 25 25 25 26 26 26 26 27 27 27 26 26 26 26 25 25 25 25 25 25 26 26 26 26 27 27 27 28 28 29 29 29 30 30 31 31 32 32 33 34 35 36 36 35 35 34
17 17 18 18 19 19 19 19 19 19 18 18 18 18 18 18 17 17 16 16 17 17 17 17 18 18 18 18 18 19 19 20 21 22 23 23 24 25 25 26 26 26 26 27 27 27 27 27 28 27 27 27 27 26 26 26 26 26 26 26 26 26 27 27 27 27 27 28 28 29 29 30 30 30 31 31 32 32 33 34 35 36 36 36 35 35
18 19 19 20 21 21 21 21 21 21 21 21 21 21 21 20 20 19 19 19 18 18 18 18 19 19 19 19 20 20 20 21 22 22 23 24 25 26 26 27 27 28 28 28 28 28 28 29 29 29 29 28 28 28 27 27 27 27 27 27 27 27 27 28 28 28 28 28 28 29 29 30 30 31 31 31 32 32 33 34 35 36 36 36 36 35
19 20 20 21 22 22 23 22 23 23 23 23 23 22 22 22 22 21 21 21 20 20 20 20 20 20 20 20 20 21 21 21 22 23 23 24 25 26 27 27 28 29 29 29 29 30 30 30 30 30 30 30 29 29 29 28 28 28 28 28 28 28 28 28 28 29 29 29 29 29 30 30 31 31 32 32 32 33 33 34 35 35 36 36 36 35
20 21 21 22 22 23 23 23 24 24 24 24 24 24 23 23 23 23 22 22 22 22 21 21 20 20 20 20 20 21 21 21 22 23 23 24 25 26 27 27 28 29 29 30 30 31 31 31 31 31 31 31 31 31 30 30 30 29 29 29 29 29 29 29 29 29 30 30 30 30 30 31 31 32 32 33 33 34 34 34 35 35 35 35 35 34
21 21 22 22 23 23 24 24 24 25 25 26 26 26 26 25 25 24 24 24 24 23 23 22 21 21 20 20 20 21 21 22 22 23 23 24 25 25 26 27 28 29 29 30 31 31 31 32 32 32 32 32 32 32 32 31 31 31 31 30 30 30 30 30 30 30 30 30 30 31 31 31 31 32 32 33 34 34 35 35 35 35 35 35 35 35
21 21 22 22 23 23 24 24 24 25 25 26 27 27 27 27 27 27 26 26 26 25 25 24 23 22 21 21 21 21 21 22 22 23 23 24 24 25 25 26 27 28 29 30 30 31 31 32 32 32 33 33 33 33 33 33 33 32 32 32 32 32 32 32 32 31 31 31 31 31 31 32 32 32 33 33 34 35 35 35 35 35 35 35 35 36
20 21 22 22 23 23 24 24 25 25 25 26 27 28 28 29 29 29 29 28 27 27 27 27 26 25 24 22 22 22 22 22 22 23 23 23 24 24 25 26 26 27 28 29 30 30 31 31 32 32 32 33 33 33 34 34 34 34 33 33 33 33 33 33 33 32 32 32 32 32 32 32 32 33 33 34 35 35 36 36 36 36 36 36 36 37
20 21 22 22 23 24 24 25 25 25 25 26 27 27 28 28 29 30 30 30 29 29 29 29 28 28 27 26 25 24 24 23 23 23 23 23 24 24 25 25 26 26 27 28 29 29 30 31 31 31 32 32 33 33 34 34 34 34 35 35 34 34 34 34 34 33 33 33 33 33 33 33 33 33 34 35 35 36 36 36 37 37 37 37 38 38
20 21 22 23 23 24 25 25 25 26 26 27 27 27 27 27 28 29 31 31 31 31 30 30 30 30 29 29 28 28 27 26 26 25 24 24 24 24 25 25 26 26 27 27 28 29 29 30 30 31 31 32 32 33 33 34 34 35 35 35 35 35 35 35 34 34 34 34 34 33 33 34 34 34 35 35 36 36 37 37 37 38 38 38 39 39
21 22 23 23 24 25 25 26 26 27 27 27 28 28 28 28 28 29 30 31 32 32 31 32 32 31 31 31 31 31 30 30 29 29 28 27 26 26 25 26 26 26 26 27 27 28 28 29 29 30 31 31 32 32 33 33 34 35 35 35 35 35 35 35 35 35 34 34 34 34 34 34 34 35 35 35 36 37 37 38 38 39 39 39 40 40
22 23 23 24 25 25 26 27 27 28 28 28 28 28 29 29 29 30 31 32 32 32 32 33 34 34 34 33 33 33 32 32 32 32 31 30 29 28 28 27 27 27 27 27 27 27 27 28 28 29 30 30 31 32 32 33 34 34 35 35 35 35 35 35 35 35 35 35 35 35 35 35 35 35 36 36 36 37 38 38 39 39 40 40 40 40
23 24 25 25 26 26 26 27 27 28 28 28 29 29 30 30 30 31 32 32 33 33 33 34 36 36 37 36 35 34 33 33 34 35 35 34 33 32 31 31 30 30 29 29 29 28 27 27 28 29 29 30 30 31 32 33 34 35 35 36 36 36 36 36 36 36 35 35 35 35 35 36 36 36 36 36 37 37 38 38 39 39 40 40 40 40
23 24 25 25 26 26 26 27 27 27 28 28 29 30 30 30 30 30 31 32 33 33 34 36 37 38 38 36 34 33 33 33 34 36 37 37 37 36 34 34 34 33 32 31 31 30 28 27 28 29 29 29 30 31 32 33 34 35 35 36 37 37 37 37 36 36 35 35 35 35 36 36 36 37 37 37 37 38 38 38 39 39 39 40 40 40
24 24 24 25 26 26 26 26 27 27 28 28 28 29 28 28 28 29 30 31 32 33 33 34 36 37 37 34 31 29 29 30 32 34 37 39 40 39 37 36 37 37 35 34 33 32 30 29 29 29 29 30 30 30 31 33 33 34 35 36 36 37 37 36 36 35 35 35 35 35 36 36 37 37 37 38 38 38 38 39 39 39 39 39 40 40
24 24 25 26 26 27 26 26 26 27 27 27 28 27 27 26 26 27 28 29 30 31 31 32 32 32 31 32 30 27 25 27 31 34 36 39 40 39 37 37 38 39 38 36 35 33 32 30 29 29 29 29 29 30 31 32 33 34 34 35 35 35 36 35 35 35 34 34 34 35 36 36 37 37 38 38 39 39 39 39 39 39 39 39 40 40
25 25 25 26 26 27 27 26 26 26 26 26 26 26 26 25 25 25 26 27 28 29 30 31 30 29 28 29 29 28 27 29 32 35 37 39 41 40 38 37 39 40 40 39 37 35 33 31 29 28 27 28 29 30 31 32 33 34 34 34 34 34 34 34 34 34 33 33 34 34 35 36 37 38 38 39 39 39 39 39 39 39 39 39 39 40
25 26 26 26 27 27 27 27 26 26 25 25 24 24 25 25 25 25 26 27 28 28 29 30 30 30 29 30 32 33 32 32 34 36 38 40 41 41 39 38 39 40 41 41 39 37 34 31 28 26 26 27 28 30 31 32 33 34 34 34 33 33 33 33 32 32 32 32 33 33 34 35 36 37 38 39 39 39 39 39 39 39 39 39 39 39
26 27 26 26 27 27 28 27 26 25 24 24 24 24 25 25 25 26 27 27 28 28 29 29 30 31 32 35 36 36 34 33 34 35 38 40 42 42 40 38 38 39 41 41 41 38 35 31 28 25 24 25 27 29 31 32 33 34 34 33 33 32 31 31 31 30 30 31 31 32 33 34 36 37 38 38 39 39 39 39 39 39 39 39 39 39
27 27 27 27 27 27 27 27 26 25 24 24 24 25 25 26 27 27 27 27 28 29 29 29 31 32 34 35 36 35 33 32 33 36 38 40 41 40 38 36 36 38 40 42 41 39 36 33 29 26 24 25 26 28 30 31 32 33 33 33 32 31 30 30 29 29 29 30 30 31 32 33 34 35 36 37 38 39 39 39 39 38 39 39 39 39
27 28 28 27 27 27 27 27 27 26 25 25 24 25 26 27 28 28 28 28 28 29 29 30 32 34 35 36 36 35 34 33 33 35 37 40 41 40 36 35 35 37 40 41 41 39 37 34 31 28 26 25 26 27 29 30 31 32 33 32 32 31 30 29 29 29 29 29 29 30 30 31 32 34 35 36 37 37 38 38 38 38 38 38 38 38
27 28 28 27 27 27 27 27 27 26 26 25 25 25 25 26 27 27 27 27 28 29 30 32 34 35 35 36 36 36 35 33 32 32 34 38 40 40 36 34 35 37 40 41 41 39 37 35 33 30 27 26 26 27 28 29 30 31 31 31 31 30 30 29 29 28 28 28 28 28 29 29 30 31 32 33 35 35 36 37 37 37 37 38 38 38
27 28 28 28 27 27 27 27 26 26 26 25 25 25 25 25 25 25 26 27 28 30 32 33 34 35 35 35 35 35 35 33 30 29 31 35 37 37 35 35 36 39 42 42 40 38 36 35 33 30 27 26 26 26 27 28 29 30 30 30 30 30 30 29 29 28 28 28 27 27 27 27 28 29 30 31 32 33 34 35 36 36 37 37 37 37
27 28 28 27 27 27 26 26 25 25 24 24 24 24 24 24 25 26 27 28 29 30 32 33 33 33 33 32 32 32 32 29 27 27 29 32 35 37 37 36 37 40 42 42 39 37 36 35 32 29 27 26 25 25 26 27 28 29 30 30 30 30 30 29 29 29 28 28 27 27 27 27 27 28 29 30 30 31 32 33 34 34 35 36 36 37
27 27 27 27 27 26 25 25 24 23 22 22 22 23 24 25 27 29 30 30 30 30 30 31 31 32 31 30 30 29 28 27 26 26 27 30 34 37 37 35 35 37 40 40 38 36 35 34 32 30 28 27 25 25 25 26 28 29 30 30 31 30 30 29 29 28 28 28 28 28 28 29 30 30 30 30 30 30 30 31 31 32 33 34 35 35
26 26 26 26 25 25 24 23 23 22 22 22 23 24 24 25 27 29 30 30 29 29 29 30 30 31 31 30 30 29 27 26 26 26 27 30 34 37 35 34 34 36 38 39 37 36 35 35 34 33 31 29 27 25 25 26 27 28 30 30 31 31 30 30 29 29 29 29 29 30 31 31 32 31 31 30 30 29 29 30 30 31 31 32 33 34
26 26 25 25 25 24 24 24 24 24 24 25 25 25 24 25 27 29 30 29 28 28 29 29 30 30 31 31 30 29 28 27 26 26 27 29 33 36 35 34 33 34 36 38 38 37 37 37 37 37 35 32 29 27 26 26 26 28 29 30 31 31 31 31 31 30 30 31 31 32 32 33 33 32 31 30 29 29 29 29 29 30 30 31 32 33
25 25 25 25 25 25 25 25 26 26 26 26 26 25 25 25 27 29 30 28 27 28 29 29 29 30 31 32 32 31 31 29 27 25 24 27 32 35 35 33 33 34 35 37 39 39 39 39 38 38 37 34 30 28 27 26 26 27 29 30 31 32 32 32 32 31 31 31 32 33 34 34 33 32 31 30 29 29 29 29 29 30 31 32 32 33
25 25 25 25 26 26 27 27 28 28 28 27 27 26 25 25 27 28 29 28 27 28 29 30 30 30 31 32 32 31 30 28 24 20 20 25 30 33 33 33 34 34 33 34 36 37 37 37 37 36 34 31 28 27 27 28 28 28 29 30 31 32 33 33 33 33 33 33 34 34 34 34 32 31 30 29 29 29 29 29 29 30 31 32 33 33
24 25 25 26 26 27 27 28 29 29 29 29 28 28 27 27 27 27 28 28 28 29 30 31 31 31 31 30 30 29 28 26 23 20 21 25 30 32 32 33 34 34 32 31 31 32 33 32 31 29 28 26 26 28 30 32 32 31 30 31 32 33 34 34 34 34 34 34 34 33 33 31 30 29 28 28 28 28 28 28 29 29 31 32 33 33
25 26 27 28 28 29 30 30 31 31 31 31 30 29 28 27 27 27 27 28 28 29 30 31 32 32 31 31 31 31 30 30 28 25 25 27 31 33 32 33 35 35 32 31 31 32 33 33 32 31 30 32 34 36 37 38 36 34 33 33 34 34 35 34 34 34 34 33 32 31 30 29 28 27 27 27 27 27 27 27 28 28 29 30 32 32
29 30 31 31 32 32 33 33 33 33 32 31 31 29 28 27 26 26 26 26 27 28 29 30 31 31 31 31 32 34 34 33 31 28 27 29 32 33 33 34 34 35 33 33 33 35 36 38 39 39 40 41 42 42 42 41 39 37 36 35 36 36 35 35 34 34 34 32 31 30 29 28 28 27 27 27 27 27 27 27 27 27 28 29 30 31
32 33 33 34 34 34 34 34 33 32 31 30 29 28 27 26 25 25 24 24 25 26 27 28 29 30 31 31 32 34 35 33 30 28 27 29 32 34 35 35 35 35 35 35 34 35 36 38 39 40 41 42 42 42 43 43 42 40 39 39 38 38 37 36 35 34 34 33 31 30 29 29 28 28 27 27 26 26 26 26 26 26 27 28 29 30
33 34 34 34 34 34 34 33 32 31 30 29 28 27 26 25 25 24 24 24 24 25 26 27 29 30 31 32 33 34 35 33 31 28 28 29 31 33 35 36 36 36 37 36 36 35 35 37 38 38 37 38 40 41 41 42 42 42 42 41 40 39 38 37 36 36 35 34 33 32 31 30 29 28 28 27 26 26 26 26 26 26 27 27 28 30
33 34 34 34 33 33 32 31 31 30 29 28 27 26 25 25 24 24 24 24 25 26 27 28 29 30 31 33 35 36 36 35 33 31 31 31 32 33 35 36 36 36 37 38 39 38 37 36 35 34 33 34 37 38 39 39 40 42 43 43 42 41 40 39 38 37 37 36 35 34 32 31 30 29 29 28 27 26 26 26 26 27 27 27 28 29
33 33 33 32 31 31 31 30 29 28 28 27 26 25 25 24 24 24 24 25 26 27 28 29 31 32 33 34 36 37 38 37 37 36 35 34 34 35 36 37 36 35 35 37 39 38 34 33 32 32 33 34 34 35 37 38 40 42 44 44 44 43 42 41 39 39 38 38 37 35 34 33 32 31 30 29 28 27 27 27 27 27 27 28 28 29
31 31 31 30 30 29 29 29 28 27 27 26 26 25 25 25 25 25 26 26 27 28 29 31 32 33 35 36 37 38 38 38 37 36 34 33 32 33 35 37 37 36 34 36 38 39 38 36 34 34 35 35 36 37 39 41 43 45 45 45 45 45 44 43 41 40 40 39 38 37 35 34 33 32 31 30 29 28 28 28 28 28 28 29 30 30
29 30 30 29 28 28 27 27 27 26 26 26 26 26 26 26 25 25 25 25 26 26 27 28 29 30 31 32 33 34 34 33 32 31 29 29 28 29 31 34 36 35 34 34 36 38 39 40 39 38 38 38 39 40 41 42 43 44 45 45 46 46 46 44 42 41 41 40 38 37 37 36 34 33 32 31 30 29 29 28 28 28 29 30 31 31
28 28 28 27 26 26 26 26 25 25 25 26 26 26 25 25 25 25 25 25 25 24 24 24 24 25 25 26 26 27 27 27 27 27 27 27 27 27 28 30 32 33 33 34 35 38 40 41 41 41 41 40 41 41 41 41 41 42 42 43 44 45 45 44 43 42 41 40 38 38 37 36 35 33 32 31 30 29 29 29 29 29 30 30 31 32
26 27 26 26 25 25 25 25 25 25 25 25 26 26 25 24 24 25 25 25 25 25 24 24 24 25 26 26 26 26 26 27 27 27 28 28 28 28 28 29 30 31 32 33 34 37 39 40 40 40 41 41 41 42 42 42 41 41 41 41 43 44 45 44 43 42 41 40 39 38 37 36 35 33 32 31 30 29 29 29 29 30 31 32 32 32
25 25 26 26 26 26 26 26 25 25 25 25 25 25 24 23 23 24 25 26 26 25 25 26 27 28 29 29 29 28 28 28 29 29 29 29 28 28 28 30 30 30 30 30 31 33 35 36 37 38 39 40 41 41 42 43 43 42 42 42 43 43 43 43 42 42 40 40 38 37 36 35 34 33 32 30 30 29 29 30 30 31 31 32 32 32
26 26 27 27 28 27 27 26 25 25 25 25 25 25 24 24 24 24 25 25 25 25 25 26 27 27 28 29 29 29 28 29 29 29 29 28 28 28 30 31 31 29 28 29 30 31 32 32 33 35 36 38 40 41 43 43 43 43 42 42 41 39 38 39 40 40 39 39 38 37 35 34 33 32 31 30 29 29 30 30 31 32 32 31 31 30
29 29 29 29 28 27 27 26 25 25 25 25 26 26 26 25 25 26 26 25 24 24 25 25 25 25 26 27 28 28 29 29 29 29 30 31 32 33 32 32 30 29 29 30 32 33 34 34 35 35 36 37 38 40 42 42 42 42 42 41 40 39 38 38 39 39 38 38 37 36 35 33 32 31 30 30 30 30 31 31 31 31 31 30 30 29
29 29 29 28 27 27 27 26 26 26 26 27 27 27 27 27 26 26 25 25 24 25 26 26 27 28 30 31 30 30 31 32 32 31 31 31 31 30 28 28 28 29 31 32 33 34 35 36 37 37 37 37 39 40 41 42 42 42 42 41 40 40 40 39 38 37 37 37 36 35 33 32 30 30 30 30 31 31 32 31 31 31 30 29 28 28
28 29 29 28 28 28 28 28 27 28 28 29 29 29 28 27 27 26 26 26 27 28 29 29 29 31 32 32 32 32 32 32 32 31 30 30 28 27 26 27 28 30 32 34 35 36 36 37 38 38 38 39 39 40 41 41 41 41 41 40 39 39 39 38 37 37 36 35 34 33 31 30 29 29 30 31 32 32 32 31 31 30 29 28 28 28
28 29 29 29 30 30 29 29 29 29 30 31 31 30 29 29 28 28 28 28 29 30 31 31 30 31 31 32 32 31 32 32 33 32 32 31 31 30 29 29 30 32 34 35 36 37 37 37 37 37 38 39 40 40 40 40 40 40 40 39 38 38 38 38 37 35 34 34 33 31 30 29 29 29 30 31 31 31 31 31 30 29 28 28 28 29
28 29 29 30 31 31 31 31 31 31 32 32 32 32 31 31 30 30 30 30 30 31 32 32 31 31 32 33 33 32 32 33 33 34 34 33 33 32 32 32 34 35 36 36 36 36 36 36 37 37 37 38 39 40 40 39 39 39 38 38 37 37 37 36 35 34 33 32 31 30 29 29 29 29 30 30 30 31 31 30 29 29 29 29 29 29
29 29 30 31 32 32 33 33 32 32 33 34 34 34 34 34 33 31 31 32 32 32 32 32 32 32 33 33 33 33 34 34 34 34 33 32 31 31 32 34 36 37 37 37 37 37 37 37 37 37 37 37 38 38 39 38 37 36 36 36 35 35 35 35 33 33 32 31 31 30 29 29 28 28 28 28 29 29 30 30 30 30 30 30 29 28
29 29 30 31 32 33 34 34 34 34 35 35 36 36 36 35 34 33 33 33 33 32 31 31 31 32 33 32 32 33 33 34 33 32 31 30 30 32 33 34 34 35 35 36 37 37 37 38 38 38 37 36 36 36 35 34 33 32 31 31 31 31 31 32 31 31 30 30 29 28 28 28 27 26 25 26 27 28 29 30 30 30 30 29 28 26
30 30 31 32 33 34 34 34 34 34 35 35 36 36 35 35 34 34 34 33 32 31 30 30 30 31 32 32 32 32 33 33 32 32 33 33 34 34 33 33 33 33 34 35 36 36 36 36 36 37 38 36 34 33 31 30 28 27 26 27 26 26 27 27 27 27 27 27 27 26 26 25 25 24 23 24 25 28 30 31 31 30 29 28 26 25
Wind_Direction
331 330 327 324 323 322 322 320 317 315 312 307 304 301 299 298 299 299 299 298 298 298 297 297 296 296 295 294 294 292 291 290 289 287 286 285 284 283 282 281 281 280 280 280 280 280 280 281 281 281 281 281 281 281 282 282 282 282 282 283 283 283 282 282 282 283 283 284 285 286 286 286 286 285 283 280 278 275 273 272 272 271 271 270 269 269
329 328 326 324 322 322 322 320 319 319 318 315 312 309 307 305 304 303 302 301 300 299 299 298 296 295 295 294 293 292 291 290 290 289 288 286 285 284 283 282 281 281 280 280 280 281 281 281 281 281 281 281 281 281 281 281 282 282 282 282 283 283 283 283 283 284 284 285 286 286 286 286 285 285 284 282 280 277 275 274 273 273 273 272 271 269
327 325 324 323 322 321 321 321 320 319 319 318 317 315 313 312 310 309 307 305 304 302 301 300 298 296 295 294 293 291 290 290 289 288 288 287 287 286 285 284 283 282 282 282 282 282 282 282 282 282 282 283 282 283 283 282 283 283 283 283 283 284 284 285 285 285 285 285 285 286 285 285 285 284 283 282 280 277 275 274 273 273 273 272 271 269
324 323 322 321 320 320 320 321 320 319 318 318 318 317 316 315 314 313 312 310 308 306 304 302 300 298 296 295 293 291 289 288 287 287 287 287 287 287 286 286 285 285 284 284 284 284 284 284 284 284 284 284 284 284 284 284 284 284 284 284 285 285 285 286 286 286 285 285 285 285 285 285 284 284 283 282 280 277 275 274 273 272 272 271 270 269
321 320 319 318 318 318 319 319 318 318 317 317 317 316 315 315 314 314 313 311 309 307 305 303 301 300 298 296 294 292 289 288 287 286 286 286 286 286 286 286 286 286 286 285 285 285 285 285 285 285 286 286 285 285 285 285 285 285 285 285 285 285 285 285 285 285 285 285 284 284 284 284 284 284 283 282 281 279 276 274 273 272 271 270 270 268
317 317 316 316 316 316 317 317 316 316 316 315 315 315 314 314 314 313 312 311 309 308 306 304 303 301 299 298 295 293 290 288 287 286 285 285 285 285 285 285 285 285 285 285 286 286 286 286 286 286 286 286 286 286 285 285 284 284 284 285 285 285 284 284 284 284 284 284 284 284 284 283 283 283 283 283 282 280 278 276 274 272 271 270 269 268
313 313 314 314 314 314 315 315 315 315 315 315 314 314 314 313 313 313 312 310 309 308 307 305 304 302 301 299 296 294 291 289 288 286 285 284 284 283 283 283 283 283 284 284 285 285 285 285 285 285 285 285 285 285 284 284 284 283 283 283 283 283 283 283 283 283 283 283 283 283 283 283 283 283 282 282 282 281 280 278 276 273 271 269 268 268
311 311 311 312 312 312 312 312 313 314 314 314 314 314 314 313 313 313 311 310 309 309 308 307 306 304 302 300 297 294 292 291 289 288 286 285 283 282 282 281 281 281 282 282 283 283 283 284 284 284 284 284 284 284 283 283 282 282 281 281 281 281 281 281 281 281 281 281 281 282 282 282 282 282 282 282 281 281 280 278 276 274 271 269 267 267
310 310 310 310 310 310 310 310 311 313 313 314 314 315 315 315 314 313 312 311 311 311 311 310 309 307 304 302 300 297 294 292 291 289 288 286 285 283 282 281 281 280 280 280 280 281 281 282 282 282 283 282 282 282 281 281 280 280 279 279 279 279 279 279 280 280 280 280 280 280 281 281 281 281 281 281 281 280 280 278 277 274 271 269 267 267
308 309 309 309 308 309 309 310 311 312 313 313 313 314 316 316 316 314 313 312 312 313 313 313 311 310 308 306 304 301 299 297 294 292 290 289 288 286 285 284 283 281 280 279 279 279 280 280 281 281 281 281 280 280 279 279 278 277 277 276 276 277 277 277 278 278 279 279 279 280 280 280 280 281 281 281 281 280 280 279 277 275 272 270 269 267
306 307 307 307 307 308 308 310 311 312 312 313 313 314 316 317 317 316 315 314 314 314 314 313 312 311 310 309 307 306 304 302 299 296 294 292 291 291 290 288 286 285 283 281 280 279 279 279 280 280 280 280 279 278 278 277 276 275 275 274 275 275 275 276 277 277 278 278 278 279 279 279 280 280 280 280 280 280 280 279 277 276 274 272 271 270
306 306 306 306 306 308 309 311 312 313 314 315 316 317 318 318 318 317 316 315 315 316 315 314 312 311 311 311 310 308 307 305 303 301 300 298 296 295 294 292 290 288 286 284 282 280 280 279 279 279 279 279 278 278 277 276 275 274 274 273 274 274 275 275 276 277 277 277 278 278 278 279 279 279 279 279 279 279 279 279 278 277 275 274 273 272
306 306 306 306 307 309 311 313 315 316 317 318 319 319 320 319 319 318 317 316 316 316 316 314 313 311 311 311 311 310 309 308 306 305 304 303 302 301 299 297 295 292 290 288 285 283 282 281 280 279 279 279 278 278 277 276 275 274 273 273 273 274 274 275 275 276 276 277 277 278 278 278 278 278 279 279 279 279 278 278 277 277 276 275 274 273
306 307 306 307 308 310 313 315 316 317 317 319 319 320 320 320 319 318 317 316 316 316 316 314 313 312 312 312 312 312 312 311 310 309 308 307 306 305 303 301 298 296 294 292 290 287 286 284 282 281 280 279 278 278 277 276 275 274 273 273 273 273 274 274 275 275 276 276 277 277 277 277 278 278 278 278 278 278 277 277 276 276 275 275 274 274
306 306 307 307 309 311 313 315 316 316 316 317 318 319 318 318 317 316 316 314 314 315 315 314 313 313 313 313 314 315 315 315 314 312 311 310 309 308 306 304 301 299 297 296 294 292 291 288 286 285 283 280 278 277 276 276 275 274 274 273 273 272 273 273 273 274 275 275 276 276 277 277 277 277 277 277 277 277 277 276 276 275 275 274 273 273
305 305 306 307 308 310 312 313 313 313 314 315 315 315 315 315 314 313 313 312 312 313 313 312 312 312 312 312 314 315 316 316 313 311 310 310 309 308 307 305 303 301 300 299 298 297 296 294 291 288 285 282 280 277 276 276 276 275 275 274 273 272 272 272 272 272 273 274 274 275 276 276 276 277 277 276 276 276 276 275 275 274 274 273 273 272
302 303 303 304 306 307 309 309 309 310 311 312 312 312 311 311 310 310 309 308 308 309 308 308 307 307 308 309 309 310 312 312 309 306 306 306 306 305 305 303 301 300 300 300 300 300 300 299 296 292 288 284 280 278 276 276 276 276 276 275 274 273 272 271 270 271 271 272 273 274 274 275 275 275 275 275 275 275 274 274 274 273 273 272 272 271
299 300 301 302 303 305 306 306 306 307 308 309 309 309 308 307 305 304 303 302 302 302 303 303 301 300 301 302 303 304 305 306 304 302 302 302 302 302 301 299 298 298 299 300 300 301 303 302 300 296 290 285 281 278 277 276 277 277 277 277 276 274 273 272 271 270 271 271 272 272 273 273 273 273 274 274 273 273 273 273 272 272 272 271 271 270
298 298 299 301 302 303 303 304 305 306 307 307 306 306 304 302 301 300 298 297 298 298 298 298 297 296 296 297 299 301 304 304 304 302 300 299 300 300 299 297 297 297 298 299 301 303 305 305 302 297 291 286 281 279 277 277 277 278 279 279 278 277 275 274 273 272 271 271 272 272 272 272 272 272 272 272 272 271 271 271 271 270 270 270 269 269
297 298 299 301 302 303 303 303 305 306 306 305 304 303 300 300 299 298 297 298 298 298 297 297 295 295 295 298 300 302 304 306 304 301 299 298 299 299 298 298 297 298 298 300 302 304 306 306 303 298 291 286 281 279 278 277 278 278 279 279 279 279 277 276 275 274 274 273 273 273 272 272 271 271 271 270 270 270 270 270 269 269 269 268 268 268
296 297 299 300 301 301 301 303 304 304 304 303 302 300 299 300 299 299 299 299 299 298 296 295 294 295 297 298 299 301 303 304 302 300 298 298 297 297 297 297 297 297 298 299 302 305 306 306 304 299 293 287 282 280 278 278 278 278 279 280 280 280 279 278 276 276 275 275 275 275 275 274 273 272 271 270 270 269 269 269 268 268 267 267 267 266
295 296 298 299 299 299 300 301 301 301 301 301 299 298 298 299 300 300 301 301 300 298 295 293 294 296 298 298 298 299 300 300 299 298 298 295 293 293 295 294 294 294 295 298 301 304 305 303 302 299 295 289 284 281 279 278 278 279 280 281 281 281 280 278 277 276 276 277 277 278 278 277 276 274 273 272 271 270 269 269 268 268 267 266 266 266
293 295 296 297 297 297 298 299 300 300 300 300 299 298 299 300 300 301 302 301 299 297 295 295 296 297 296 296 296 297 296 297 297 297 295 290 289 291 293 291 290 290 291 295 299 302 301 300 299 298 295 290 285 282 280 279 279 280 281 282 282 281 280 279 277 277 277 278 279 280 281 280 279 278 276 275 273 272 271 270 269 268 267 266 265 265
293 294 295 296 296 297 298 299 300 300 301 301 301 302 302 301 299 298 296 295 294 294 294 295 295 295 294 294 293 293 293 295 297 297 292 287 286 288 289 288 288 289 290 294 297 299 299 297 297 297 294 290 286 282 280 280 280 281 283 283 283 282 280 279 278 277 278 279 280 282 283 283 282 281 280 278 276 274 273 271 270 268 267 266 265 265
293 294 295 296 296 297 298 299 300 300 301 301 301 300 299 297 294 292 291 291 291 291 292 292 291 290 289 289 288 289 291 294 295 293 288 285 285 285 286 286 287 288 290 293 296 298 297 297 297 297 295 291 287 284 282 281 282 283 284 284 284 283 282 281 280 279 279 280 281 283 284 285 285 285 283 282 279 277 275 273 271 269 268 267 266 266
295 295 296 296 297 297 298 298 297 296 294 292 291 290 289 289 289 288 288 287 287 287 287 286 285 284 285 286 286 287 289 291 289 286 285 285 285 285 286 287 288 288 290 292 295 297 297 297 298 298 297 293 289 286 284 283 283 285 285 286 285 285 284 284 283 282 282 283 284 285 286 287 287 287 286 284 282 279 276 274 272 270 269 268 267 267
295 295 296 296 296 295 294 292 290 288 285 282 280 280 282 283 283 283 281 281 282 283 283 282 283 284 285 285 285 285 287 287 285 284 284 285 285 285 285 288 289 289 290 292 294 296 295 295 297 298 298 296 294 291 288 286 285 285 286 287 288 289 289 289 288 288 288 288 288 288 289 289 289 289 288 286 283 280 277 275 273 271 270 269 268 268
292 292 292 292 292 290 289 287 285 283 282 281 280 280 280 279 279 278 277 279 280 280 279 279 281 283 284 283 283 284 285 284 284 285 287 287 285 284 286 290 292 292 292 293 294 294 292 291 293 296 298 298 298 296 292 289 287 286 287 289 291 293 294 294 293 293 292 292 291 291 291 291 291 290 288 286 283 280 278 276 274 272 271 270 269 268
291 291 290 289 288 288 287 286 285 284 285 285 285 284 281 278 276 276 277 279 279 278 277 277 278 280 281 282 284 285 285 284 285 287 290 288 285 285 289 293 294 294 294 294 293 291 289 289 291 294 297 298 297 296 294 291 289 287 288 290 293 295 296 296 295 294 292 291 291 291 291 291 290 289 287 284 282 280 278 276 274 273 271 271 270 270
291 290 289 288 287 286 286 286 286 287 287 287 288 287 284 280 277 277 277 277 276 275 276 276 277 278 280 282 284 285 284 284 286 289 290 287 285 286 290 291 292 292 292 291 290 289 289 290 292 294 295 295 294 293 293 293 291 289 289 291 293 294 295 295 294 292 290 289 289 289 289 289 287 286 284 282 280 279 277 276 275 273 272 272 271 271
289 287 286 285 285 285 285 285 286 287 288 288 288 288 286 283 281 279 276 274 272 272 273 275 275 276 276 278 281 282 282 284 285 286 286 284 284 285 287 289 290 289 288 286 285 287 290 292 292 292 293 291 290 291 292 293 293 291 290 291 291 292 292 293 292 291 290 289 289 289 289 288 286 284 282 281 280 279 277 276 275 274 273 273 273 272
283 282 281 282 283 283 284 284 286 287 288 289 290 290 288 286 284 281 277 275 272 271 271 272 273 273 273 272 273 275 277 281 284 285 284 283 283 284 286 287 288 287 286 283 282 283 286 288 288 287 287 288 289 290 290 291 291 291 291 291 290 290 290 291 291 291 290 290 290 290 290 288 287 285 284 282 281 280 278 276 275 274 274 274 274 274
279 279 280 281 282 283 284 286 287 289 290 291 292 292 291 290 287 284 281 277 273 271 269 269 270 271 271 271 271 272 275 279 282 284 284 284 285 286 287 286 285 284 284 284 283 282 282 282 283 284 285 286 287 288 289 290 290 290 291 291 291 291 290 291 291 291 291 291 292 292 291 290 289 288 286 285 283 281 279 278 276 275 275 275 275 276
281 282 283 284 285 287 288 290 292 293 294 294 295 295 294 293 291 288 284 280 275 271 268 268 268 270 271 272 273 274 275 278 281 283 284 284 285 286 287 285 283 282 284 284 283 280 278 278 278 280 283 286 287 288 289 290 290 290 291 293 294 294 293 293 293 293 293 293 293 293 292 292 291 290 289 287 285 283 281 279 278 277 276 276 277 277
286 287 288 289 291 293 294 296 297 298 298 297 297 296 296 294 293 290 286 282 278 274 271 270 270 270 271 272 274 275 276 278 281 283 282 282 284 285 285 284 283 284 285 285 282 279 275 273 273 275 280 285 288 289 289 289 290 291 293 294 296 296 296 296 295 295 294 294 293 293 294 294 294 292 291 289 287 284 282 280 279 278 278 278 278 278
291 292 293 295 296 297 298 299 299 299 299 297 296 295 294 293 291 288 284 281 277 275 273 272 272 272 271 272 273 275 276 279 280 280 279 279 280 281 281 281 282 284 286 286 284 279 273 271 272 275 281 285 287 287 286 287 288 291 293 295 297 298 298 297 297 296 295 295 294 294 295 295 295 294 292 290 289 287 285 283 282 281 280 280 279 279
293 294 296 297 298 299 299 299 298 298 297 297 296 294 293 291 288 285 282 278 275 272 271 270 269 269 269 269 270 272 274 276 277 277 277 276 276 276 277 278 280 281 282 284 284 281 277 275 278 283 285 284 283 282 284 285 287 288 290 293 295 297 298 297 296 296 295 294 294 295 296 296 295 294 293 291 290 288 286 285 284 283 283 282 281 279
293 294 296 297 297 297 297 296 296 296 296 296 295 293 292 290 288 285 282 279 276 273 271 269 268 267 267 267 267 269 271 273 275 276 277 277 277 276 276 277 278 279 278 278 279 280 280 280 282 284 283 281 280 280 282 284 284 285 286 290 293 296 296 296 295 294 293 293 294 294 295 295 294 293 292 291 289 288 286 285 285 284 284 283 282 280
292 293 294 294 295 295 295 294 294 295 295 295 295 294 294 293 292 290 289 287 285 282 279 277 276 274 273 272 271 272 273 274 276 279 281 282 282 282 281 281 281 282 282 281 280 279 278 277 277 276 276 277 279 280 281 281 280 281 284 288 291 293 294 294 293 293 292 291 292 292 293 293 293 292 291 290 289 288 287 286 286 285 285 284 284 283
293 293 294 294 296 296 296 295 295 296 296 296 297 297 297 298 299 299 299 298 297 296 295 294 292 289 287 284 283 282 283 283 285 286 287 288 290 290 290 288 288 288 289 288 286 283 280 276 274 274 274 275 276 277 277 276 276 278 282 285 288 290 292 293 292 291 290 289 289 289 290 291 291 291 290 290 289 288 288 287 287 286 286 286 286 286
295 295 295 297 299 298 297 296 297 298 299 299 300 300 300 301 302 302 302 301 300 302 305 306 305 301 298 295 294 294 295 294 294 293 293 294 295 295 295 295 294 293 292 292 291 287 283 278 277 276 277 276 276 276 275 274 276 278 282 284 285 287 289 290 289 288 288 287 287 287 288 289 290 290 290 290 289 288 287 286 286 287 287 288 288 287
295 295 296 299 300 300 300 300 301 301 301 301 301 300 300 301 300 300 300 300 301 305 310 310 306 302 299 298 298 298 298 298 298 298 297 296 294 293 294 295 295 294 293 292 291 289 286 284 282 282 282 281 279 277 276 277 279 281 283 284 285 286 286 286 286 286 286 286 286 286 287 289 289 290 290 289 288 287 286 286 286 287 288 288 288 287
296 297 299 302 303 303 303 303 302 301 301 300 299 298 298 298 298 299 300 302 306 310 311 309 305 302 299 298 297 296 296 296 297 296 294 291 289 288 290 291 292 292 291 290 289 288 288 289 288 287 287 287 284 281 279 281 283 284 285 285 284 282 280 280 283 285 285 286 286 286 287 289 290 290 290 288 286 285 286 286 287 288 288 288 288 286
301 302 304 305 306 306 305 303 302 301 300 299 297 297 298 299 301 303 305 306 308 309 307 304 302 301 299 297 295 293 291 289 287 285 284 284 285 286 288 289 291 292 293 291 289 290 291 291 291 291 291 291 288 285 283 283 285 286 286 286 284 281 278 279 282 284 284 285 286 287 288 289 290 290 288 287 286 285 286 287 288 288 288 288 287 286
304 304 306 306 306 305 304 303 303 303 302 300 299 299 301 302 304 305 306 305 303 301 297 297 298 299 298 296 295 294 292 288 286 285 286 287 288 290 291 292 294 296 297 295 294 293 292 291 291 292 293 291 289 286 284 284 285 285 286 286 284 283 282 282 282 282 283 284 285 286 288 289 289 288 286 286 286 286 287 288 288 287 287 287 286 286
304 305 305 306 307 306 304 305 305 305 304 303 302 303 303 304 304 303 303 302 301 300 299 301 301 300 299 299 299 298 297 296 295 295 296 297 298 298 298 298 298 298 297 296 295 295 295 294 293 293 292 289 287 285 285 285 284 284 284 284 283 283 283 282 282 282 283 284 285 286 287 287 286 285 285 285 286 287 287 287 287 287 287 287 287 287
304 304 304 306 307 307 306 306 306 305 304 303 303 303 304 304 303 303 302 302 302 303 304 303 301 299 297 297 297 297 296 296 297 299 301 303 304 304 301 300 298 297 296 296 296 296 297 296 296 294 290 286 283 283 284 285 285 284 283 283 283 282 282 282 283 284 285 285 285 286 286 286 284 284 285 286 286 286 286 286 287 287 288 289 289 289
304 304 305 306 307 307 306 305 305 304 303 303 304 304 304 304 303 302 302 302 302 302 302 301 298 296 295 295 296 296 296 296 297 299 301 302 303 302 300 298 298 298 299 299 299 299 298 296 295 292 289 285 282 282 283 285 285 284 284 283 283 282 282 283 284 285 285 285 285 285 285 284 284 284 285 286 286 286 286 287 288 289 290 291 291 291
305 305 305 305 306 305 304 305 304 304 304 304 304 304 305 305 304 302 301 301 301 300 300 299 297 296 294 293 294 296 297 297 297 297 297 296 295 295 295 297 299 301 303 303 302 300 297 294 292 290 288 286 283 282 283 285 286 286 285 283 282 281 281 283 283 284 283 283 284 284 284 284 284 284 284 284 284 285 287 288 290 292 292 293 292 292
306 305 305 305 304 304 304 304 304 303 303 303 303 303 303 303 302 301 300 300 300 299 298 297 296 294 292 292 293 294 296 296 294 292 290 290 290 292 294 297 300 301 301 300 298 296 294 293 292 292 292 290 288 286 285 286 287 288 286 284 283 282 282 282 283 283 283 283 283 284 284 283 283 283 282 282 284 286 288 290 292 293 294 294 294 293
307 306 305 305 304 304 303 303 302 301 301 301 301 301 301 300 300 300 300 300 300 299 297 295 293 291 291 290 291 291 291 290 289 288 288 290 293 295 298 300 300 299 296 294 293 293 292 291 292 293 295 295 294 292 290 289 290 290 288 287 286 285 284 283 283 283 283 283 283 283 282 282 281 281 282 283 286 288 291 292 294 295 295 295 295 294
Height
1473 1473 1473 1474 1474 1474 1475 1475 1475 1476 1476 1476 1476 1476 1476 1476 1476 1476 1475 1475 1475 1474 1474 1474 1474 1474 1474 1474 1474 1474 1474 1473 1473 1473 1472 1472 1472 1471 1471 1471 1470 1470 1469 1469 1468 1468 1467 1467 1467 1466 1466 1466 1466 1465 1465 1465 1465 1464 1464 1464 1463 1463 1463 1462 1462 1461 1460 1460 1459 1459 1458 1458 1457 1457 1456 1456 1456 1456 1456 1455 1455 1455 1455 1455 1455 1456
1471 1471 1471 1472 1472 1472 1473 1473 1473 1473 1474 1474 1474 1474 1474 1474 1474 1474 1474 1474 1474 1473 1473 1473 1473 1473 1473 1473 1473 1473 1472 1472 1471 1471 1471 1470 1470 1470 1469 1469 1469 1468 1467 1467 1466 1466 1465 1465 1464 1464 1464 1464 1463 1463 1463 1463 1462 1462 1462 1461 1461 1460 1460 1459 1459 1459 1458 1457 1457 1456 1456 1455 1455 1454 1454 1454 1454 1453 1453 1453 1453 1452 1452 1453 1453 1453
1469 1470 1470 1470 1470 1470 1470 1471 1471 1471 1471 1471 1472 1472 1472 1472 1472 1472 1472 1472 1472 1472 1472 1471 1471 1471 1471 1471 1471 1471 1470 1470 1470 1469 1469 1469 1468 1468 1468 1467 1467 1466 1465 1465 1464 1464 1463 1463 1462 1462 1461 1461 1461 1460 1460 1460 1459 1459 1459 1459 1458 1458 1457 1457 1456 1456 1455 1455 1454 1454 1453 1453 1453 1452 1452 1452 1451 1451 1450 1450 1450 1450 1450 1450 1450 1450
1468 1468 1468 1468 1468 1468 1468 1469 1469 1469 1469 1469 1469 1469 1469 1469 1469 1470 1470 1470 1470 1470 1470 1470 1470 1469 1469 1469 1469 1469 1469 1468 1468 1468 1467 1467 1466 1466 1465 1465 1464 1464 1463 1463 1462 1462 1461 1460 1460 1459 1459 1459 1458 1458 1458 1457 1457 1457 1456 1456 1455 1455 1454 1454 1454 1453 1453 1452 1452 1451 1451 1450 1450 1450 1449 1449 1449 1448 1448 1448 1447 1447 1447 1447 1447 1447
1466 1466 1466 1466 1466 1466 1466 1467 1467 1467 1467 1467 1467 1467 1467 1467 1468 1468 1468 1468 1468 1468 1468 1468 1468 1468 1468 1467 1467 1467 1467 1466 1466 1466 1465 1465 1464 1464 1464 1463 1463 1462 1461 1461 1460 1459 1459 1458 1458 1457 1457 1456 1456 1456 1455 1455 1454 1454 1454 1453 1453 1452 1452 1451 1451 1450 1450 1449 1449 1449 1448 1448 1448 1447 1447 1446 1446 1446 1445 1445 1445 1445 1444 1444 1444 1444
1465 1465 1465 1465 1465 1465 1465 1465 1465 1465 1465 1465 1465 1465 1465 1465 1465 1466 1466 1466 1466 1466 1466 1466 1466 1466 1465 1465 1465 1465 1465 1464 1464 1464 1464 1463 1463 1462 1462 1461 1460 1460 1459 1459 1458 1457 1457 1456 1456 1455 1455 1454 1454 1454 1453 1453 1452 1452 1451 1451 1450 1450 1449 1449 1449 1448 1447 1447 1447 1446 1446 1445 1445 1444 1444 1444 1444 1443 1443 1443 1442 1442 1442 1442 1442 1442
1464 1464 1464 1464 1464 1464 1464 1464 1464 1464 1463 1463 1463 1463 1463 1463 1463 1464 1463 1463 1464 1464 1464 1464 1464 1464 1464 1464 1463 1463 1463 1462 1462 1462 1461 1461 1461 1460 1460 1459 1459 1458 1457 1457 1456 1455 1455 1454 1454 1454 1453 1453 1452 1452 1451 1451 1450 1450 1449 1449 1448 1448 1447 1446 1446 1445 1445 1445 1444 1444 1443 1443 1442 1442 1442 1441 1441 1440 1440 1440 1440 1439 1439 1439 1439 1439
1463 1463 1463 1463 1463 1463 1463 1463 1463 1462 1462 1461 1461 1461 1460 1461 1461 1461 1461 1461 1461 1461 1461 1461 1461 1461 1462 1461 1461 1461 1460 1460 1460 1459 1459 1459 1459 1458 1458 1457 1457 1456 1455 1455 1454 1454 1453 1453 1452 1452 1451 1451 1450 1450 1449 1449 1448 1448 1447 1447 1446 1445 1445 1444 1444 1443 1443 1442 1442 1441 1441 1440 1440 1439 1439 1439 1438 1438 1438 1437 1437 1437 1437 1437 1436 1436
1462 1462 1462 1462 1461 1461 1461 1461 1461 1461 1461 1460 1460 1459 1459 1458 1458 1458 1458 1458 1458 1458 1458 1458 1458 1458 1459 1459 1459 1459 1458 1458 1458 1457 1457 1457 1456 1456 1456 1455 1455 1454 1454 1453 1452 1452 1451 1451 1450 1450 1449 1449 1449 1448 1447 1447 1446 1446 1445 1444 1444 1443 1442 1442 1441 1441 1440 1439 1439 1439 1438 1438 1437 1437 1437 1436 1436 1435 1435 1435 1434 1434 1434 1434 1434 1434
1461 1461 1460 1460 1460 1460 1459 1459 1459 1460 1460 1459 1459 1458 1458 1457 1456 1455 1455 1455 1455 1455 1455 1455 1454 1454 1454 1455 1455 1455 1455 1455 1455 1455 1455 1454 1454 1454 1454 1453 1453 1452 1451 1451 1450 1450 1449 1449 1448 1448 1447 1447 1446 1446 1445 1444 1444 1443 1443 1442 1441 1441 1440 1439 1439 1438 1438 1437 1437 1436 1436 1435 1435 1434 1434 1434 1433 1433 1432 1432 1432 1431 1431 1431 1431 1431
1459 1459 1459 1459 1458 1458 1458 1458 1458 1458 1458 1457 1457 1457 1457 1456 1455 1454 1453 1452 1452 1453 1453 1452 1452 1451 1451 1451 1452 1452 1452 1452 1452 1452 1452 1452 1452 1452 1451 1451 1450 1450 1449 1449 1448 1448 1447 1447 1446 1446 1445 1444 1444 1443 1443 1442 1442 1441 1440 1439 1439 1438 1437 1437 1436 1435 1435 1434 1434 1434 1433 1433 1432 1432 1431 1431 1430 1430 1429 1429 1429 1429 1428 1428 1428 1428
1458 1458 1457 1457 1457 1456 1456 1456 1456 1456 1456 1455 1455 1454 1454 1454 1454 1452 1451 1450 1449 1450 1449 1449 1449 1449 1449 1449 1448 1448 1448 1448 1448 1448 1448 1449 1449 1449 1449 1448 1448 1447 1447 1446 1445 1445 1445 1444 1444 1443 1443 1442 1441 1441 1440 1439 1439 1438 1438 1437 1436 1435 1435 1434 1434 1433 1432 1432 1431 1431 1430 1430 1429 1429 1429 1428 1428 1427 1427 1426 1426 1426 1425 1425 1425 1425
1456 1456 1456 1455 1455 1455 1455 1454 1454 1453 1453 1453 1453 1452 1451 1451 1451 1450 1449 1448 1447 1447 1447 1446 1445 1445 1445 1446 1445 1445 1444 1444 1444 1444 1444 1444 1445 1445 1445 1444 1444 1444 1444 1443 1443 1442 1442 1442 1441 1441 1440 1439 1439 1438 1438 1437 1436 1435 1435 1434 1433 1433 1432 1431 1431 1430 1429 1429 1428 1428 1427 1427 1426 1426 1426 1425 1425 1424 1424 1424 1423 1423 1422 1422 1422 1421
1455 1454 1454 1453 1453 1453 1453 1453 1452 1451 1451 1451 1450 1450 1449 1449 1448 1448 1446 1445 1445 1445 1445 1444 1442 1441 1442 1442 1442 1442 1441 1440 1440 1439 1439 1440 1440 1441 1441 1440 1440 1440 1440 1440 1439 1439 1440 1439 1439 1438 1437 1437 1436 1436 1435 1434 1434 1433 1432 1431 1430 1430 1429 1428 1428 1427 1427 1426 1425 1425 1424 1424 1424 1423 1423 1422 1422 1421 1421 1420 1420 1420 1419 1419 1419 1419
1453 1453 1452 1451 1451 1451 1451 1451 1450 1450 1449 1449 1449 1448 1447 1447 1446 1446 1445 1444 1443 1442 1442 1441 1439 1438 1439 1439 1439 1439 1438 1437 1436 1435 1435 1435 1435 1436 1437 1436 1436 1436 1436 1436 1436 1436 1437 1437 1436 1435 1434 1434 1434 1433 1432 1431 1430 1430 1429 1428 1427 1427 1426 1425 1425 1424 1424 1423 1423 1422 1421 1421 1421 1420 1420 1419 1419 1418 1418 1418 1417 1417 1417 1416 1416 1415
1451 1451 1450 1450 1449 1449 1449 1449 1449 1448 1448 1448 1447 1447 1446 1445 1445 1444 1444 1442 1441 1441 1440 1439 1437 1435 1435 1436 1437 1437 1436 1435 1434 1433 1432 1430 1430 1431 1432 1432 1431 1430 1432 1433 1433 1433 1433 1434 1433 1432 1431 1431 1430 1430 1429 1428 1427 1426 1426 1425 1424 1424 1423 1422 1422 1421 1421 1420 1419 1419 1419 1418 1418 1417 1417 1416 1416 1415 1415 1414 1414 1414 1414 1413 1413 1413
1449 1449 1449 1448 1448 1448 1448 1448 1448 1447 1447 1446 1446 1446 1445 1444 1444 1443 1442 1441 1440 1439 1439 1438 1437 1435 1433 1433 1434 1436 1436 1435 1433 1431 1430 1428 1427 1428 1429 1429 1427 1426 1426 1428 1429 1429 1430 1430 1430 1429 1428 1427 1427 1426 1425 1424 1424 1423 1422 1422 1421 1420 1420 1419 1419 1418 1418 1417 1416 1416 1415 1415 1414 1414 1414 1413 1413 1412 1412 1411 1411 1411 1410 1410 1410 1409
1448 1448 1448 1447 1447 1446 1447 1446 1446 1446 1446 1445 1444 1444 1444 1443 1443 1442 1441 1440 1439 1439 1437 1436 1436 1435 1434 1432 1432 1434 1435 1434 1432 1429 1428 1426 1425 1425 1427 1426 1424 1423 1422 1423 1424 1426 1427 1427 1426 1426 1425 1424 1423 1423 1422 1421 1420 1420 1419 1418 1418 1417 1416 1416 1415 1415 1414 1414 1414 1413 1413 1412 1412 1411 1411 1410 1410 1409 1409 1409 1408 1408 1408 1407 1407 1406
1446 1446 1446 1445 1445 1445 1444 1444 1444 1444 1444 1444 1443 1443 1442 1441 1441 1440 1440 1439 1438 1437 1436 1435 1434 1433 1432 1431 1430 1431 1433 1433 1430 1428 1426 1424 1422 1422 1424 1424 1422 1420 1419 1419 1420 1422 1423 1423 1423 1423 1422 1421 1420 1419 1419 1418 1417 1417 1416 1415 1414 1414 1413 1413 1412 1412 1411 1411 1410 1410 1409 1409 1409 1408 1408 1407 1407 1406 1406 1405 1405 1405 1404 1404 1404 1403
1444 1444 1444 1444 1444 1443 1442 1442 1442 1443 1442 1442 1441 1441 1440 1439 1439 1439 1438 1437 1436 1436 1435 1434 1432 1431 1430 1429 1428 1428 1430 1430 1429 1426 1424 1421 1419 1419 1420 1420 1419 1417 1416 1416 1417 1418 1419 1419 1419 1419 1419 1418 1417 1417 1416 1415 1414 1414 1413 1412 1412 1411 1410 1410 1409 1409 1408 1408 1407 1407 1406 1406 1405 1405 1404 1404 1404 1403 1403 1402 1402 1402 1401 1401 1401 1400
1442 1442 1442 1443 1442 1441 1440 1440 1441 1441 1440 1440 1439 1439 1438 1437 1437 1436 1436 1436 1435 1434 1433 1432 1430 1429 1429 1427 1426 1426 1428 1428 1427 1424 1422 1419 1416 1415 1417 1417 1416 1414 1413 1412 1413 1414 1415 1415 1415 1415 1415 1415 1414 1414 1413 1412 1411 1411 1410 1409 1409 1408 1407 1407 1406 1406 1405 1405 1404 1404 1403 1403 1402 1402 1401 1401 1400 1400 1399 1399 1399 1399 1398 1398 1397 1397
1441 1440 1440 1441 1440 1439 1439 1439 1439 1439 1439 1438 1438 1437 1436 1436 1435 1434 1434 1434 1433 1432 1431 1430 1428 1427 1426 1425 1424 1424 1426 1426 1426 1424 1421 1417 1413 1411 1414 1415 1414 1412 1410 1409 1410 1411 1411 1411 1411 1411 1412 1412 1411 1410 1410 1409 1409 1408 1407 1406 1405 1405 1404 1404 1403 1403 1402 1402 1401 1401 1400 1400 1399 1399 1398 1398 1397 1397 1396 1396 1396 1395 1395 1394 1394 1394
1439 1439 1439 1439 1439 1438 1437 1437 1437 1437 1436 1436 1436 1435 1434 1434 1433 1432 1431 1431 1431 1430 1429 1427 1426 1425 1424 1423 1422 1422 1423 1424 1424 1423 1421 1416 1411 1409 1412 1413 1412 1409 1407 1407 1408 1409 1408 1408 1408 1408 1409 1408 1408 1407 1407 1406 1406 1405 1404 1403 1403 1402 1401 1401 1400 1400 1399 1399 1399 1398 1398 1397 1396 1396 1395 1395 1394 1394 1393 1393 1392 1392 1392 1391 1391 1391
1438 1437 1437 1437 1436 1436 1435 1435 1434 1434 1434 1434 1433 1433 1432 1432 1432 1431 1430 1430 1429 1429 1427 1425 1424 1423 1422 1422 1421 1420 1420 1421 1422 1421 1419 1414 1410 1409 1410 1411 1409 1407 1404 1405 1406 1406 1405 1404 1404 1405 1405 1405 1404 1404 1404 1403 1403 1402 1401 1400 1399 1399 1398 1398 1397 1397 1397 1396 1396 1395 1395 1394 1394 1393 1393 1392 1391 1391 1390 1390 1389 1389 1389 1388 1388 1387
1436 1435 1434 1434 1434 1434 1433 1433 1433 1432 1432 1432 1431 1431 1431 1431 1430 1429 1429 1429 1428 1427 1426 1424 1423 1421 1420 1420 1420 1418 1418 1419 1419 1419 1417 1414 1409 1407 1408 1409 1408 1405 1401 1401 1403 1403 1402 1401 1401 1402 1402 1402 1402 1401 1401 1400 1399 1399 1398 1397 1397 1396 1395 1395 1394 1394 1394 1393 1393 1393 1392 1392 1391 1391 1390 1389 1389 1388 1387 1387 1386 1386 1385 1385 1384 1384
1433 1433 1432 1432 1432 1432 1431 1431 1431 1431 1431 1431 1431 1431 1430 1430 1429 1428 1427 1426 1426 1426 1424 1423 1421 1419 1418 1418 1417 1416 1416 1416 1416 1416 1415 1413 1408 1405 1404 1406 1406 1403 1399 1398 1399 1400 1399 1397 1397 1398 1399 1399 1399 1399 1398 1397 1397 1396 1395 1394 1394 1393 1393 1392 1392 1391 1391 1390 1390 1390 1389 1389 1388 1388 1387 1386 1386 1385 1384 1384 1384 1383 1382 1382 1381 1381
1431 1431 1430 1430 1430 1430 1429 1429 1429 1429 1430 1430 1430 1430 1429 1429 1427 1426 1425 1424 1424 1424 1423 1421 1419 1417 1416 1415 1414 1414 1414 1414 1414 1413 1413 1411 1407 1403 1401 1403 1403 1401 1397 1396 1396 1397 1396 1394 1394 1395 1396 1396 1396 1396 1395 1395 1394 1393 1393 1392 1391 1390 1389 1389 1389 1388 1388 1388 1387 1387 1386 1386 1385 1385 1384 1384 1383 1382 1382 1381 1381 1380 1380 1379 1378 1378
1429 1429 1429 1428 1428 1428 1428 1428 1428 1428 1428 1428 1428 1428 1428 1427 1425 1424 1422 1422 1423 1422 1420 1419 1417 1416 1414 1412 1411 1410 1411 1411 1411 1410 1410 1409 1404 1400 1399 1401 1401 1399 1397 1394 1393 1393 1393 1392 1391 1392 1392 1393 1393 1393 1393 1392 1392 1391 1390 1389 1388 1387 1387 1386 1386 1385 1385 1384 1384 1384 1383 1383 1382 1381 1381 1380 1380 1379 1379 1379 1378 1378 1377 1376 1375 1374
1427 1427 1426 1426 1426 1425 1425 1425 1425 1425 1425 1425 1425 1425 1425 1424 1423 1421 1419 1420 1420 1419 1417 1416 1416 1414 1412 1410 1409 1408 1407 1408 1408 1409 1408 1406 1401 1398 1398 1399 1398 1397 1397 1394 1391 1389 1389 1389 1389 1389 1389 1389 1390 1390 1390 1390 1389 1389 1388 1387 1386 1385 1384 1384 1383 1383 1382 1382 1381 1381 1380 1379 1379 1379 1378 1377 1377 1376 1376 1376 1375 1375 1374 1373 1372 1371
1424 1424 1424 1423 1423 1423 1423 1422 1422 1422 1422 1422 1422 1422 1422 1421 1420 1419 1418 1418 1418 1417 1415 1414 1413 1412 1411 1409 1407 1405 1404 1404 1406 1407 1407 1404 1399 1396 1397 1397 1396 1395 1396 1395 1391 1387 1385 1385 1386 1386 1385 1385 1386 1387 1388 1388 1387 1387 1386 1385 1384 1383 1382 1381 1381 1380 1380 1379 1379 1378 1377 1377 1376 1376 1375 1374 1374 1374 1373 1373 1372 1372 1371 1370 1369 1368
1422 1421 1421 1420 1420 1420 1420 1419 1419 1419 1419 1419 1419 1418 1418 1418 1417 1416 1416 1416 1415 1414 1413 1411 1410 1409 1409 1408 1406 1403 1400 1401 1403 1405 1405 1402 1398 1395 1396 1396 1394 1393 1394 1395 1393 1388 1383 1382 1383 1384 1384 1383 1383 1383 1384 1385 1385 1384 1384 1383 1382 1381 1380 1379 1379 1378 1377 1377 1376 1375 1374 1374 1373 1373 1372 1372 1371 1371 1370 1370 1369 1369 1368 1367 1366 1365
1419 1419 1418 1418 1418 1417 1417 1416 1416 1416 1415 1415 1415 1415 1414 1414 1414 1414 1413 1413 1412 1411 1410 1409 1408 1407 1406 1406 1404 1401 1398 1398 1399 1401 1402 1400 1396 1393 1394 1395 1392 1390 1391 1393 1392 1389 1384 1381 1380 1381 1382 1381 1381 1380 1381 1382 1382 1381 1381 1380 1379 1378 1378 1377 1376 1375 1374 1374 1373 1373 1372 1371 1370 1370 1369 1369 1368 1368 1367 1367 1367 1366 1365 1364 1363 1363
1417 1416 1416 1415 1415 1414 1414 1414 1413 1413 1412 1412 1411 1411 1411 1410 1410 1410 1409 1409 1409 1408 1407 1406 1405 1404 1403 1402 1400 1398 1395 1395 1396 1398 1399 1397 1394 1391 1391 1392 1391 1389 1389 1389 1389 1388 1385 1381 1379 1379 1379 1379 1378 1378 1378 1378 1378 1378 1378 1377 1376 1375 1374 1374 1374 1372 1371 1371 1370 1370 1369 1369 1368 1367 1367 1366 1365 1365 1364 1364 1364 1363 1362 1362 1361 1360
1414 1414 1413 1412 1412 1411 1411 1410 1410 1409 1409 1408 1408 1407 1407 1407 1406 1406 1406 1405 1405 1405 1404 1404 1402 1401 1400 1399 1397 1394 1393 1393 1394 1395 1396 1395 1392 1390 1389 1389 1389 1388 1387 1386 1386 1385 1383 1380 1378 1377 1375 1374 1374 1374 1374 1374 1374 1374 1374 1374 1373 1372 1371 1371 1370 1369 1368 1368 1367 1367 1366 1366 1365 1364 1364 1364 1363 1362 1362 1361 1361 1360 1360 1359 1358 1357
1411 1410 1410 1409 1409 1408 1407 1407 1406 1406 1405 1404 1404 1404 1404 1403 1403 1403 1403 1402 1402 1401 1401 1400 1399 1399 1398 1396 1394 1392 1390 1390 1391 1393 1394 1393 1391 1389 1388 1386 1386 1386 1385 1383 1382 1382 1380 1377 1375 1375 1374 1371 1370 1370 1371 1371 1371 1370 1370 1370 1369 1369 1368 1367 1367 1366 1365 1364 1364 1364 1364 1363 1363 1362 1361 1361 1360 1359 1359 1359 1358 1358 1357 1356 1356 1355
1408 1407 1406 1406 1405 1404 1404 1403 1403 1402 1402 1401 1401 1401 1401 1400 1400 1400 1400 1399 1399 1399 1398 1397 1397 1396 1395 1394 1392 1389 1387 1387 1389 1390 1391 1390 1389 1388 1387 1384 1383 1384 1383 1380 1379 1378 1377 1374 1373 1372 1372 1371 1369 1367 1367 1368 1368 1367 1366 1365 1366 1365 1364 1364 1363 1363 1362 1361 1361 1360 1360 1360 1360 1359 1358 1358 1358 1357 1356 1355 1355 1354 1354 1354 1353 1353
1405 1404 1403 1403 1402 1402 1401 1400 1400 1399 1399 1399 1398 1398 1398 1398 1398 1397 1397 1397 1396 1396 1395 1394 1394 1393 1392 1391 1389 1387 1386 1386 1386 1387 1387 1387 1387 1386 1384 1382 1381 1382 1382 1379 1377 1376 1375 1373 1371 1370 1369 1369 1368 1366 1364 1364 1365 1364 1363 1362 1362 1362 1361 1361 1360 1360 1359 1358 1358 1358 1358 1358 1357 1356 1356 1355 1355 1354 1353 1353 1352 1352 1351 1351 1350 1350
1402 1401 1400 1400 1400 1399 1398 1398 1397 1397 1397 1396 1396 1395 1395 1395 1395 1394 1394 1393 1393 1392 1392 1391 1390 1389 1388 1387 1386 1385 1384 1383 1383 1383 1384 1384 1384 1383 1382 1379 1378 1378 1379 1378 1376 1375 1374 1372 1370 1369 1367 1366 1365 1364 1363 1362 1361 1360 1359 1359 1360 1359 1359 1358 1357 1357 1356 1355 1355 1355 1355 1355 1354 1354 1353 1353 1352 1351 1351 1350 1349 1349 1349 1348 1347 1347
1400 1399 1398 1398 1397 1397 1396 1395 1395 1394 1394 1394 1393 1393 1392 1392 1391 1391 1390 1389 1389 1388 1388 1387 1386 1385 1384 1383 1382 1382 1381 1380 1380 1380 1380 1380 1380 1379 1379 1377 1375 1374 1375 1375 1374 1373 1371 1369 1368 1366 1364 1363 1361 1360 1360 1359 1359 1358 1357 1357 1356 1356 1355 1355 1355 1354 1353 1353 1353 1352 1352 1352 1352 1351 1350 1350 1349 1349 1348 1347 1347 1346 1346 1345 1344 1343
1398 1396 1395 1395 1395 1394 1394 1393 1392 1392 1391 1391 1390 1390 1389 1389 1388 1387 1386 1386 1385 1384 1384 1383 1382 1381 1380 1379 1379 1378 1378 1377 1377 1377 1377 1376 1376 1376 1376 1374 1373 1372 1371 1371 1370 1369 1368 1366 1364 1362 1362 1361 1359 1358 1357 1357 1356 1356 1355 1354 1353 1351 1352 1353 1352 1351 1350 1350 1350 1350 1349 1349 1349 1348 1348 1347 1346 1346 1345 1344 1344 1343 1343 1342 1341 1340
1395 1394 1393 1393 1392 1392 1391 1390 1390 1389 1389 1388 1387 1387 1386 1385 1385 1384 1383 1383 1382 1381 1380 1379 1378 1377 1376 1375 1375 1374 1374 1373 1373 1373 1373 1373 1373 1373 1373 1372 1371 1370 1369 1368 1367 1366 1365 1364 1362 1360 1359 1359 1358 1356 1355 1354 1354 1354 1354 1352 1350 1349 1349 1349 1349 1348 1348 1347 1347 1347 1347 1346 1346 1345 1345 1344 1344 1343 1343 1342 1341 1340 1340 1339 1339 1338
1393 1392 1391 1390 1390 1389 1388 1388 1387 1387 1386 1385 1384 1384 1384 1384 1383 1382 1381 1380 1379 1378 1377 1376 1375 1374 1372 1371 1370 1370 1370 1369 1369 1369 1369 1369 1369 1369 1369 1369 1369 1368 1367 1366 1365 1364 1363 1363 1361 1359 1358 1357 1356 1355 1352 1351 1352 1352 1352 1350 1349 1347 1347 1346 1346 1346 1346 1344 1344 1344 1344 1344 1343 1342 1342 1342 1341 1340 1340 1339 1339 1338 1337 1336 1336 1335
1390 1389 1389 1388 1387 1387 1386 1385 1385 1384 1384 1383 1383 1382 1382 1381 1381 1380 1379 1378 1376 1375 1375 1374 1374 1373 1371 1369 1368 1368 1368 1367 1367 1367 1367 1367 1367 1367 1367 1367 1366 1365 1365 1364 1362 1360 1359 1360 1359 1357 1355 1355 1354 1353 1350 1349 1349 1349 1349 1348 1347 1346 1344 1343 1343 1343 1343 1342 1342 1342 1342 1341 1341 1340 1339 1339 1338 1338 1337 1337 1336 1335 1334 1334 1333 1332
1388 1387 1386 1385 1385 1384 1384 1383 1383 1382 1382 1381 1380 1379 1379 1379 1378 1377 1376 1375 1374 1374 1374 1374 1373 1372 1370 1369 1368 1367 1366 1365 1365 1366 1365 1365 1364 1364 1364 1364 1363 1363 1362 1361 1359 1358 1356 1356 1355 1354 1353 1353 1352 1350 1348 1347 1346 1346 1345 1345 1345 1344 1343 1341 1341 1341 1340 1340 1339 1339 1339 1339 1338 1337 1337 1336 1335 1335 1334 1334 1333 1332 1332 1331 1330 1329
1385 1384 1384 1383 1382 1382 1381 1381 1380 1379 1379 1378 1377 1377 1376 1376 1375 1374 1374 1373 1373 1373 1373 1372 1370 1369 1366 1364 1364 1363 1362 1361 1361 1361 1361 1361 1361 1361 1361 1361 1360 1359 1359 1358 1357 1356 1355 1353 1352 1351 1351 1350 1349 1347 1346 1344 1344 1343 1342 1342 1342 1341 1340 1339 1339 1339 1338 1338 1337 1337 1337 1337 1336 1335 1334 1333 1332 1332 1331 1331 1330 1329 1329 1329 1328 1327
1383 1382 1381 1380 1380 1379 1379 1378 1377 1377 1376 1375 1374 1374 1373 1373 1373 1372 1371 1371 1370 1369 1368 1368 1367 1366 1363 1362 1361 1360 1359 1358 1357 1357 1357 1358 1358 1358 1358 1357 1357 1356 1356 1355 1354 1354 1353 1351 1349 1349 1348 1347 1346 1344 1343 1342 1341 1340 1339 1339 1339 1339 1338 1337 1337 1337 1336 1335 1335 1335 1335 1334 1334 1332 1331 1330 1329 1329 1328 1328 1327 1327 1326 1326 1325 1324
1381 1380 1379 1378 1377 1377 1376 1375 1375 1374 1373 1372 1371 1371 1371 1370 1370 1369 1368 1368 1367 1366 1365 1364 1364 1363 1361 1360 1359 1358 1357 1355 1354 1354 1354 1354 1354 1354 1354 1354 1354 1353 1353 1352 1351 1350 1349 1348 1347 1346 1346 1344 1343 1341 1340 1339 1339 1338 1337 1336 1336 1336 1335 1334 1334 1334 1334 1333 1333 1333 1333 1332 1331 1330 1329 1328 1327 1326 1325 1324 1324 1324 1324 1323 1323 1322
1379 1378 1377 1376 1375 1374 1373 1373 1372 1372 1370 1369 1368 1368 1368 1368 1367 1366 1365 1365 1364 1364 1363 1362 1361 1360 1359 1357 1357 1356 1355 1354 1352 1351 1351 1351 1351 1351 1351 1351 1350 1349 1349 1348 1347 1346 1345 1344 1344 1344 1343 1342 1340 1338 1337 1337 1336 1336 1334 1334 1334 1333 1332 1332 1331 1332 1331 1331 1331 1330 1330 1330 1329 1328 1327 1325 1324 1323 1322 1322 1321 1321 1321 1320 1320 1319
1377 1375 1374 1374 1373 1372 1371 1370 1370 1369 1368 1366 1365 1365 1364 1364 1364 1364 1363 1362 1362 1361 1360 1359 1358 1357 1356 1355 1354 1354 1353 1352 1351 1350 1349 1349 1349 1349 1349 1348 1347 1346 1345 1344 1343 1342 1341 1340 1340 1340 1339 1339 1338 1336 1335 1334 1334 1334 1333 1332 1331 1331 1330 1329 1329 1329 1329 1329 1329 1328 1328 1327 1326 1326 1325 1324 1322 1320 1319 1319 1319 1319 1318 1318 1317 1316
1374 1373 1373 1372 1370 1369 1369 1368 1367 1366 1365 1364 1363 1363 1362 1361 1361 1361 1361 1360 1359 1359 1358 1357 1357 1355 1354 1353 1352 1352 1351 1350 1349 1349 1348 1348 1348 1348 1347 1346 1345 1344 1343 1341 1340 1339 1338 1337 1335 1335 1335 1336 1335 1334 1333 1332 1332 1331 1330 1329 1329 1328 1328 1327 1327 1327 1327 1327 1326 1326 1326 1325 1324 1324 1323 1321 1320 1318 1317 1317 1316 1316 1316 1315 1315 1314
1371 1371 1370 1369 1369 1367 1367 1366 1365 1365 1364 1363 1362 1361 1360 1359 1359 1359 1358 1358 1357 1357 1356 1355 1355 1354 1353 1352 1351 1350 1350 1350 1349 1347 1346 1346 1345 1345 1344 1344 1344 1343 1341 1339 1338 1337 1336 1334 1332 1331 1330 1331 1331 1331 1330 1330 1329 1329 1328 1327 1326 1326 1326 1325 1325 1325 1325 1325 1324 1324 1324 1323 1322 1321 1320 1319 1318 1317 1315 1314 1314 1314 1313 1313 1312 1311